Time,TemperatureF,DewpointF,PressureIn,WindDirection,WindDirectionDegrees,WindSpeedMPH,WindSpeedGustMPH,Humidity,HourlyPrecipIn,Conditions,Clouds,dailyrainin,SolarRadiationWatts/m^2,SoftwareType,DateUTC
2013-09-05 00:00:00,59.5,51.9,29.88,NNE,32,0.0,0.0,76,0.00,,,0.00,0,Wunderground v.1.15,2013-09-05 07:00:00,
2013-09-05 00:10:00,59.4,51.8,29.89,NNE,32,0.0,0.0,76,0.00,,,0.00,0,Wunderground v.1.15,2013-09-05 07:10:00,
2013-09-05 00:15:00,59.4,51.8,29.89,NE,34,0.0,0.0,76,0.00,,,0.00,0,Wunderground v.1.15,2013-09-05 07:15:00,
2013-09-05 00:20:00,59.4,51.8,29.89,NE,34,0.0,0.0,76,0.00,,,0.00,0,Wunderground v.1.15,2013-09-05 07:20:00,
2013-09-05 00:25:00,59.4,51.8,29.89,NE,54,0.0,0.0,76,0.00,,,0.00,0,Wunderground v.1.15,2013-09-05 07:25:00,
2013-09-05 00:35:00,59.4,51.8,29.89,NE,54,0.0,0.0,76,0.00,,,0.00,0,Wunderground v.1.15,2013-09-05 07:35:00,
2013-09-05 00:40:00,59.4,51.8,29.89,NE,55,0.0,0.0,76,0.00,,,0.00,0,Wunderground v.1.15,2013-09-05 07:40:00,
2013-09-05 00:45:00,59.3,51.7,29.89,NE,55,0.0,0.0,76,0.00,,,0.00,0,Wunderground v.1.15,2013-09-05 07:45:00,
2013-09-05 00:50:00,59.3,51.7,29.89,NE,54,0.0,0.0,76,0.00,,,0.00,0,Wunderground v.1.15,2013-09-05 07:50:00,
2013-09-05 00:55:00,58.9,51.3,29.89,NE,54,0.0,0.0,76,0.00,,,0.00,0,Wunderground v.1.15,2013-09-05 07:55:00,
2013-09-05 01:00:00,59.0,51.4,29.88,NE,54,0.0,0.0,76,0.00,,,0.00,0,Wunderground v.1.15,2013-09-05 08:00:00,
2013-09-05 01:10:00,57.4,50.9,29.89,NE,54,0.0,0.0,79,0.00,,,0.00,0,Wunderground v.1.15,2013-09-05 08:10:00,
2013-09-05 01:20:00,56.6,50.8,29.88,NE,54,0.0,0.0,81,0.00,,,0.00,0,Wunderground v.1.15,2013-09-05 08:20:00,
2013-09-05 01:30:00,56.7,50.9,29.88,NE,54,0.0,0.0,81,0.00,,,0.00,0,Wunderground v.1.15,2013-09-05 08:30:00,
2013-09-05 01:35:00,56.4,50.6,29.88,NE,53,0.0,0.0,81,0.00,,,0.00,0,Wunderground v.1.15,2013-09-05 08:35:00,
2013-09-05 01:40:00,56.0,50.6,29.88,NE,53,0.0,0.0,82,0.00,,,0.00,0,Wunderground v.1.15,2013-09-05 08:40:00,
2013-09-05 01:45:00,56.4,51.0,29.88,NE,53,0.0,0.0,82,0.00,,,0.00,0,Wunderground v.1.15,2013-09-05 08:45:00,
2013-09-05 01:55:00,55.9,50.5,29.88,NE,53,0.0,0.0,82,0.00,,,0.00,0,Wunderground v.1.15,2013-09-05 08:55:00,
2013-09-05 02:00:00,55.9,50.8,29.88,NE,53,0.0,0.0,83,0.00,,,0.00,0,Wunderground v.1.15,2013-09-05 09:00:00,
2013-09-05 02:10:00,55.8,50.7,29.88,NE,53,0.0,0.0,83,0.00,,,0.00,0,Wunderground v.1.15,2013-09-05 09:10:00,
2013-09-05 02:20:00,56.3,50.9,29.88,NE,53,0.0,0.0,82,0.00,,,0.00,0,Wunderground v.1.15,2013-09-05 09:20:00,
2013-09-05 02:25:00,56.4,51.0,29.88,NE,53,0.0,0.0,82,0.00,,,0.00,0,Wunderground v.1.15,2013-09-05 09:25:00,
2013-09-05 02:30:00,56.4,51.0,29.88,NE,53,0.0,0.0,82,0.00,,,0.00,0,Wunderground v.1.15,2013-09-05 09:30:00,
2013-09-05 02:35:00,55.7,50.0,29.88,NE,53,0.0,0.0,81,0.00,,,0.00,0,Wunderground v.1.15,2013-09-05 09:35:00,
2013-09-05 02:40:00,54.9,49.5,29.88,NE,53,0.0,0.0,82,0.00,,,0.00,0,Wunderground v.1.15,2013-09-05 09:40:00,
2013-09-05 02:45:00,55.0,50.3,29.88,NE,53,0.0,0.0,84,0.00,,,0.00,0,Wunderground v.1.15,2013-09-05 09:45:00,
2013-09-05 02:50:00,55.3,50.2,29.88,NE,53,0.0,0.0,83,0.00,,,0.00,0,Wunderground v.1.15,2013-09-05 09:50:00,
2013-09-05 02:55:00,55.0,49.9,29.88,NE,53,0.0,0.0,83,0.00,,,0.00,0,Wunderground v.1.15,2013-09-05 09:55:00,
2013-09-05 03:00:00,54.4,49.3,29.88,NE,53,0.0,0.0,83,0.00,,,0.00,0,Wunderground v.1.15,2013-09-05 10:00:00,
2013-09-05 03:10:00,53.3,49.2,29.88,NE,53,0.0,0.0,86,0.00,,,0.00,0,Wunderground v.1.15,2013-09-05 10:10:00,
2013-09-05 03:20:00,53.9,50.1,29.88,NE,53,0.0,0.0,87,0.00,,,0.00,0,Wunderground v.1.15,2013-09-05 10:20:00,
2013-09-05 03:25:00,54.3,50.5,29.88,NE,53,0.0,0.0,87,0.00,,,0.00,0,Wunderground v.1.15,2013-09-05 10:25:00,
2013-09-05 03:35:00,54.8,50.4,29.88,NE,53,0.0,0.0,85,0.00,,,0.00,0,Wunderground v.1.15,2013-09-05 10:35:00,
2013-09-05 03:40:00,54.5,50.4,29.88,NE,53,0.0,0.0,86,0.00,,,0.00,0,Wunderground v.1.15,2013-09-05 10:40:00,
2013-09-05 03:45:00,54.3,50.2,29.88,NE,53,0.0,0.0,86,0.00,,,0.00,0,Wunderground v.1.15,2013-09-05 10:45:00,
2013-09-05 03:50:00,53.5,48.8,29.88,NE,53,0.0,0.0,84,0.00,,,0.00,0,Wunderground v.1.15,2013-09-05 10:50:00,
2013-09-05 03:55:00,53.1,49.3,29.88,NE,53,0.0,0.0,87,0.00,,,0.00,0,Wunderground v.1.15,2013-09-05 10:55:00,
2013-09-05 04:00:00,53.1,49.6,29.88,NE,53,0.0,0.0,88,0.00,,,0.00,0,Wunderground v.1.15,2013-09-05 11:00:00,
2013-09-05 04:10:00,52.5,48.7,29.88,NE,53,0.0,0.0,87,0.00,,,0.00,0,Wunderground v.1.15,2013-09-05 11:10:00,
2013-09-05 04:20:00,52.2,48.8,29.89,NE,53,0.0,0.0,88,0.00,,,0.00,0,Wunderground v.1.15,2013-09-05 11:20:00,
2013-09-05 04:25:00,52.4,48.9,29.89,NE,53,0.0,0.0,88,0.00,,,0.00,0,Wunderground v.1.15,2013-09-05 11:25:00,
2013-09-05 04:30:00,52.4,49.3,29.88,NE,53,0.0,0.0,89,0.00,,,0.00,0,Wunderground v.1.15,2013-09-05 11:30:00,
2013-09-05 04:35:00,52.8,49.6,29.88,NE,53,0.0,0.0,89,0.00,,,0.00,0,Wunderground v.1.15,2013-09-05 11:35:00,
2013-09-05 04:45:00,53.6,49.5,29.88,NE,53,0.0,0.0,86,0.00,,,0.00,0,Wunderground v.1.15,2013-09-05 11:45:00,
2013-09-05 04:50:00,53.0,48.6,29.88,NE,53,0.0,0.0,85,0.00,,,0.00,0,Wunderground v.1.15,2013-09-05 11:50:00,
2013-09-05 04:55:00,52.2,48.8,29.88,NE,53,0.0,0.0,88,0.00,,,0.00,0,Wunderground v.1.15,2013-09-05 11:55:00,
2013-09-05 05:00:00,51.9,48.8,29.88,NE,53,0.0,0.0,89,0.00,,,0.00,0,Wunderground v.1.15,2013-09-05 12:00:00,
2013-09-05 05:10:00,51.3,48.5,29.88,NE,53,0.0,0.0,90,0.00,,,0.00,0,Wunderground v.1.15,2013-09-05 12:10:00,
2013-09-05 05:20:00,51.0,48.2,29.88,NE,53,0.0,0.0,90,0.00,,,0.00,0,Wunderground v.1.15,2013-09-05 12:20:00,
2013-09-05 05:25:00,50.9,48.1,29.89,NE,53,0.0,0.0,90,0.00,,,0.00,0,Wunderground v.1.15,2013-09-05 12:25:00,
2013-09-05 05:30:00,50.8,48.3,29.89,NE,53,0.0,0.0,91,0.00,,,0.00,0,Wunderground v.1.15,2013-09-05 12:30:00,
2013-09-05 05:35:00,51.0,48.5,29.89,NE,53,0.0,0.0,91,0.00,,,0.00,0,Wunderground v.1.15,2013-09-05 12:35:00,
2013-09-05 05:40:00,51.0,48.2,29.89,NE,53,0.0,0.0,90,0.00,,,0.00,0,Wunderground v.1.15,2013-09-05 12:40:00,
2013-09-05 05:50:00,50.9,48.4,29.88,NE,53,0.0,0.0,91,0.00,,,0.00,0,Wunderground v.1.15,2013-09-05 12:50:00,
2013-09-05 05:55:00,51.0,48.5,29.88,NE,53,0.0,0.0,91,0.00,,,0.00,0,Wunderground v.1.15,2013-09-05 12:55:00,
2013-09-05 06:00:00,51.1,48.6,29.89,NE,53,0.0,0.0,91,0.00,,,0.00,0,Wunderground v.1.15,2013-09-05 13:00:00,
2013-09-05 06:10:00,51.3,48.8,29.89,East,86,0.0,0.0,91,0.00,,,0.00,0,Wunderground v.1.15,2013-09-05 13:10:00,
2013-09-05 06:15:00,51.3,48.5,29.89,East,86,0.0,0.0,90,0.00,,,0.00,0,Wunderground v.1.15,2013-09-05 13:15:00,
2013-09-05 06:25:00,51.5,48.7,29.89,East,86,0.0,0.0,90,0.00,,,0.00,0,Wunderground v.1.15,2013-09-05 13:25:00,
2013-09-05 06:30:00,51.4,48.6,29.89,East,86,0.0,0.0,90,0.00,,,0.00,0,Wunderground v.1.15,2013-09-05 13:30:00,
2013-09-05 06:35:00,51.6,48.8,29.89,East,86,0.0,0.0,90,0.00,,,0.00,0,Wunderground v.1.15,2013-09-05 13:35:00,
2013-09-05 06:40:00,51.5,48.7,29.89,East,86,0.0,0.0,90,0.00,,,0.00,5,Wunderground v.1.15,2013-09-05 13:40:00,
2013-09-05 06:45:00,51.2,48.4,29.89,East,86,0.0,0.0,90,0.00,,,0.00,16,Wunderground v.1.15,2013-09-05 13:45:00,
2013-09-05 06:50:00,51.2,48.7,29.89,East,86,0.0,0.0,91,0.00,,,0.00,19,Wunderground v.1.15,2013-09-05 13:50:00,
2013-09-05 07:00:00,52.2,49.7,29.90,East,86,0.0,0.0,91,0.00,,,0.00,30,Wunderground v.1.15,2013-09-05 14:00:00,
2013-09-05 07:10:00,53.2,50.0,29.89,East,86,0.0,0.0,89,0.00,,,0.00,54,Wunderground v.1.15,2013-09-05 14:10:00,
2013-09-05 07:15:00,53.6,50.1,29.89,East,86,0.0,0.0,88,0.00,,,0.00,49,Wunderground v.1.15,2013-09-05 14:15:00,
2013-09-05 07:20:00,53.9,50.1,29.90,East,86,0.0,0.0,87,0.00,,,0.00,72,Wunderground v.1.15,2013-09-05 14:20:00,
2013-09-05 07:25:00,54.4,50.3,29.90,East,86,0.0,0.0,86,0.00,,,0.00,88,Wunderground v.1.15,2013-09-05 14:25:00,
2013-09-05 07:35:00,55.3,50.9,29.90,East,86,0.0,0.0,85,0.00,,,0.00,97,Wunderground v.1.15,2013-09-05 14:35:00,
2013-09-05 07:40:00,55.4,50.6,29.90,East,86,0.0,0.0,84,0.00,,,0.00,72,Wunderground v.1.15,2013-09-05 14:40:00,
2013-09-05 07:45:00,55.5,50.7,29.90,East,86,0.0,0.0,84,0.00,,,0.00,70,Wunderground v.1.15,2013-09-05 14:45:00,
2013-09-05 07:50:00,55.6,50.5,29.90,East,86,0.0,0.0,83,0.00,,,0.00,70,Wunderground v.1.15,2013-09-05 14:50:00,
2013-09-05 07:55:00,55.7,50.6,29.90,East,86,0.0,0.0,83,0.00,,,0.00,65,Wunderground v.1.15,2013-09-05 14:55:00,
2013-09-05 08:05:00,55.4,50.6,29.90,East,97,0.0,0.0,84,0.00,,,0.00,83,Wunderground v.1.15,2013-09-05 15:05:00,
2013-09-05 08:10:00,55.6,50.5,29.90,ESE,107,0.0,0.0,83,0.00,,,0.00,98,Wunderground v.1.15,2013-09-05 15:10:00,
2013-09-05 08:15:00,55.8,50.7,29.90,ESE,107,0.0,0.0,83,0.00,,,0.00,113,Wunderground v.1.15,2013-09-05 15:15:00,
2013-09-05 08:20:00,56.0,50.9,29.90,SE,138,0.0,0.0,83,0.00,,,0.00,132,Wunderground v.1.15,2013-09-05 15:20:00,
2013-09-05 08:25:00,56.0,50.9,29.90,SSE,167,0.0,0.0,83,0.00,,,0.00,149,Wunderground v.1.15,2013-09-05 15:25:00,
2013-09-05 08:30:00,56.1,51.0,29.90,SSE,168,0.0,0.0,83,0.00,,,0.00,155,Wunderground v.1.15,2013-09-05 15:30:00,
2013-09-05 08:40:00,57.1,51.3,29.90,SSE,168,0.0,0.0,81,0.00,,,0.00,176,Wunderground v.1.15,2013-09-05 15:40:00,
2013-09-05 08:45:00,57.7,51.2,29.90,SSE,167,0.0,0.0,79,0.00,,,0.00,285,Wunderground v.1.15,2013-09-05 15:45:00,
2013-09-05 08:50:00,58.4,51.6,29.90,SSE,167,0.0,0.0,78,0.00,,,0.00,139,Wunderground v.1.15,2013-09-05 15:50:00,
2013-09-05 08:55:00,58.7,51.5,29.90,SSE,166,0.0,0.0,77,0.00,,,0.00,221,Wunderground v.1.15,2013-09-05 15:55:00,
2013-09-05 09:05:00,59.8,51.5,29.89,SSE,165,0.0,0.0,74,0.00,,,0.00,327,Wunderground v.1.15,2013-09-05 16:05:00,
2013-09-05 09:15:00,61.1,52.0,29.89,SSE,164,0.0,0.0,72,0.00,,,0.00,424,Wunderground v.1.15,2013-09-05 16:15:00,
2013-09-05 09:20:00,62.5,52.2,29.90,SSE,164,0.0,0.0,69,0.00,,,0.00,434,Wunderground v.1.15,2013-09-05 16:20:00,
2013-09-05 09:25:00,63.4,52.2,29.89,SSE,164,0.0,0.0,67,0.00,,,0.00,441,Wunderground v.1.15,2013-09-05 16:25:00,
2013-09-05 09:30:00,63.8,52.6,29.89,SSE,163,0.0,0.0,67,0.00,,,0.00,450,Wunderground v.1.15,2013-09-05 16:30:00,
2013-09-05 09:35:00,64.2,53.0,29.89,SSE,163,0.0,0.0,67,0.00,,,0.00,464,Wunderground v.1.15,2013-09-05 16:35:00,
2013-09-05 09:40:00,64.6,52.6,29.89,SSE,163,0.0,0.0,65,0.00,,,0.00,475,Wunderground v.1.15,2013-09-05 16:40:00,
2013-09-05 09:50:00,64.6,52.6,29.89,SSE,165,0.0,0.0,65,0.00,,,0.00,512,Wunderground v.1.15,2013-09-05 16:50:00,
2013-09-05 10:00:00,66.4,53.0,29.88,SSE,165,0.0,0.0,62,0.00,,,0.00,512,Wunderground v.1.15,2013-09-05 17:00:00,
2013-09-05 10:10:00,66.3,52.4,29.88,SSE,167,0.0,0.0,61,0.00,,,0.00,434,Wunderground v.1.15,2013-09-05 17:10:00,
2013-09-05 10:15:00,66.5,53.1,29.88,South,170,0.0,0.0,62,0.00,,,0.00,422,Wunderground v.1.15,2013-09-05 17:15:00,
2013-09-05 10:25:00,66.2,52.3,29.88,SSE,167,0.0,0.0,61,0.00,,,0.00,301,Wunderground v.1.15,2013-09-05 17:25:00,
2013-09-05 10:30:00,66.5,52.6,29.88,SSE,167,0.0,0.0,61,0.00,,,0.00,485,Wunderground v.1.15,2013-09-05 17:30:00,
2013-09-05 10:35:00,66.8,52.9,29.88,SSE,167,0.0,0.0,61,0.00,,,0.00,459,Wunderground v.1.15,2013-09-05 17:35:00,
2013-09-05 10:40:00,67.0,52.7,29.88,South,171,0.0,0.0,60,0.00,,,0.00,694,Wunderground v.1.15,2013-09-05 17:40:00,
2013-09-05 10:50:00,69.7,53.3,29.87,East,84,1.0,3.0,56,0.00,,,0.00,693,Wunderground v.1.15,2013-09-05 17:50:00,
2013-09-05 11:00:00,70.0,53.1,29.87,ENE,67,1.0,1.0,55,0.00,,,0.00,779,Wunderground v.1.15,2013-09-05 18:00:00,
2013-09-05 11:10:00,68.6,51.8,29.87,NNE,19,2.0,2.0,55,0.00,,,0.00,708,Wunderground v.1.15,2013-09-05 18:10:00,
2013-09-05 11:15:00,68.5,52.2,29.87,NNE,22,1.0,2.0,56,0.00,,,0.00,635,Wunderground v.1.15,2013-09-05 18:15:00,
2013-09-05 11:20:00,69.2,51.8,29.86,North,5,2.0,4.0,54,0.00,,,0.00,740,Wunderground v.1.15,2013-09-05 18:20:00,
2013-09-05 11:30:00,69.9,52.5,29.86,North,360,1.0,1.0,54,0.00,,,0.00,759,Wunderground v.1.15,2013-09-05 18:30:00,
2013-09-05 11:35:00,70.2,52.8,29.86,North,360,0.0,1.0,54,0.00,,,0.00,800,Wunderground v.1.15,2013-09-05 18:35:00,
2013-09-05 11:40:00,70.2,52.3,29.86,NNE,17,1.0,6.0,53,0.00,,,0.00,788,Wunderground v.1.15,2013-09-05 18:40:00,
2013-09-05 11:50:00,70.6,53.1,29.86,North,355,3.0,4.0,54,0.00,,,0.00,833,Wunderground v.1.15,2013-09-05 18:50:00,
2013-09-05 11:55:00,71.6,53.0,29.86,NE,53,2.0,5.0,52,0.00,,,0.00,775,Wunderground v.1.15,2013-09-05 18:55:00,
2013-09-05 12:00:00,71.2,52.7,29.85,NE,36,3.0,3.0,52,0.00,,,0.00,830,Wunderground v.1.15,2013-09-05 19:00:00,
2013-09-05 12:10:00,70.2,52.8,29.85,North,350,3.0,3.0,54,0.00,,,0.00,809,Wunderground v.1.15,2013-09-05 19:10:00,
2013-09-05 12:15:00,72.4,53.2,29.85,North,350,1.0,3.0,51,0.00,,,0.00,791,Wunderground v.1.15,2013-09-05 19:15:00,
2013-09-05 12:20:00,73.2,53.4,29.85,NE,40,1.0,1.0,50,0.00,,,0.00,861,Wunderground v.1.15,2013-09-05 19:20:00,
2013-09-05 12:25:00,71.7,52.6,29.85,NE,40,3.0,3.0,51,0.00,,,0.00,800,Wunderground v.1.15,2013-09-05 19:25:00,
2013-09-05 12:30:00,72.5,52.8,29.85,NE,46,2.0,2.0,50,0.00,,,0.00,148,Wunderground v.1.15,2013-09-05 19:30:00,
2013-09-05 12:40:00,70.6,52.6,29.85,North,350,2.0,2.0,53,0.00,,,0.00,178,Wunderground v.1.15,2013-09-05 19:40:00,
2013-09-05 12:45:00,71.6,53.0,29.84,WNW,292,1.0,2.0,52,0.00,,,0.00,858,Wunderground v.1.15,2013-09-05 19:45:00,
2013-09-05 12:50:00,71.8,52.2,29.84,NE,36,1.0,1.0,50,0.00,,,0.00,766,Wunderground v.1.15,2013-09-05 19:50:00,
2013-09-05 12:55:00,71.3,52.2,29.84,NNE,13,2.0,2.0,51,0.00,,,0.00,262,Wunderground v.1.15,2013-09-05 19:55:00,
2013-09-05 13:00:00,71.5,51.9,29.84,NNW,327,2.0,2.0,50,0.00,,,0.00,626,Wunderground v.1.15,2013-09-05 20:00:00,
2013-09-05 13:10:00,72.3,52.1,29.84,NW,313,2.0,4.0,49,0.00,,,0.00,285,Wunderground v.1.15,2013-09-05 20:10:00,
2013-09-05 13:15:00,71.8,52.2,29.84,NW,310,2.0,4.0,50,0.00,,,0.00,313,Wunderground v.1.15,2013-09-05 20:15:00,
2013-09-05 13:20:00,72.0,52.3,29.84,NW,311,1.0,3.0,50,0.00,,,0.00,675,Wunderground v.1.15,2013-09-05 20:20:00,
2013-09-05 13:30:00,71.5,51.9,29.83,North,360,1.0,1.0,50,0.00,,,0.00,348,Wunderground v.1.15,2013-09-05 20:30:00,
2013-09-05 13:35:00,71.7,51.5,29.83,North,355,1.0,1.0,49,0.00,,,0.00,425,Wunderground v.1.15,2013-09-05 20:35:00,
2013-09-05 13:40:00,72.1,51.9,29.83,WNW,303,0.0,0.0,49,0.00,,,0.00,332,Wunderground v.1.15,2013-09-05 20:40:00,
2013-09-05 13:50:00,72.2,52.0,29.83,NW,315,0.0,0.0,49,0.00,,,0.00,294,Wunderground v.1.15,2013-09-05 20:50:00,
2013-09-05 13:55:00,72.2,50.8,29.82,NW,318,0.0,1.0,47,0.00,,,0.00,265,Wunderground v.1.15,2013-09-05 20:55:00,
2013-09-05 14:00:00,72.1,50.8,29.81,NW,323,1.0,2.0,47,0.00,,,0.00,262,Wunderground v.1.15,2013-09-05 21:00:00,
2013-09-05 14:10:00,72.7,51.3,29.81,North,351,0.0,0.0,47,0.00,,,0.00,374,Wunderground v.1.15,2013-09-05 21:10:00,
2013-09-05 14:20:00,73.0,51.6,29.80,North,5,4.0,4.0,47,0.00,,,0.00,506,Wunderground v.1.15,2013-09-05 21:20:00,
2013-09-05 14:25:00,73.2,52.3,29.80,NNW,339,4.0,5.0,48,0.00,,,0.00,599,Wunderground v.1.15,2013-09-05 21:25:00,
2013-09-05 14:30:00,73.4,51.9,29.81,NNW,344,3.0,3.0,47,0.00,,,0.00,390,Wunderground v.1.15,2013-09-05 21:30:00,
2013-09-05 14:35:00,73.3,51.8,29.80,NNW,331,2.0,3.0,47,0.00,,,0.00,279,Wunderground v.1.15,2013-09-05 21:35:00,
2013-09-05 14:40:00,73.0,52.1,29.80,North,355,2.0,3.0,48,0.00,,,0.00,244,Wunderground v.1.15,2013-09-05 21:40:00,
2013-09-05 14:45:00,72.6,51.8,29.80,NNE,24,3.0,3.0,48,0.00,,,0.00,227,Wunderground v.1.15,2013-09-05 21:45:00,
2013-09-05 14:55:00,72.6,51.2,29.79,North,5,3.0,5.0,47,0.00,,,0.00,167,Wunderground v.1.15,2013-09-05 21:55:00,
2013-09-05 15:00:00,72.1,50.8,29.79,North,11,4.0,4.0,47,0.00,,,0.00,134,Wunderground v.1.15,2013-09-05 22:00:00,
2013-09-05 15:10:00,71.9,51.7,29.80,NNE,19,5.0,5.0,49,0.00,,,0.00,58,Wunderground v.1.15,2013-09-05 22:10:00,
2013-09-05 15:15:00,71.5,47.8,29.85,SW,227,6.0,25.0,43,0.00,,,0.00,23,Wunderground v.1.15,2013-09-05 22:15:00,
2013-09-05 15:20:00,68.0,48.1,29.86,SSW,207,14.0,23.0,49,0.00,,,0.00,9,Wunderground v.1.15,2013-09-05 22:20:00,
2013-09-05 15:30:00,60.8,49.8,29.84,WSW,240,23.0,23.0,67,0.00,,,0.00,30,Wunderground v.1.15,2013-09-05 22:30:00,
2013-09-05 15:35:00,58.5,48.7,29.84,SW,236,21.0,23.0,70,0.00,,,0.00,37,Wunderground v.1.15,2013-09-05 22:35:00,
2013-09-05 15:40:00,57.3,48.7,29.84,SW,219,17.0,17.0,73,0.00,,,0.00,53,Wunderground v.1.15,2013-09-05 22:40:00,
2013-09-05 15:45:00,57.1,49.2,29.85,WSW,241,14.0,17.0,75,0.00,,,0.00,69,Wunderground v.1.15,2013-09-05 22:45:00,
2013-09-05 15:50:00,57.5,49.6,29.85,WSW,239,12.0,12.0,75,0.00,,,0.00,107,Wunderground v.1.15,2013-09-05 22:50:00,
2013-09-05 15:55:00,57.7,49.8,29.85,WSW,242,7.0,12.0,75,0.00,,,0.00,148,Wunderground v.1.15,2013-09-05 22:55:00,
2013-09-05 16:00:00,58.3,49.7,29.84,West,269,4.0,10.0,73,0.00,,,0.00,195,Wunderground v.1.15,2013-09-05 23:00:00,
2013-09-05 16:10:00,59.4,50.0,29.83,WSW,237,4.0,4.0,71,0.00,,,0.00,244,Wunderground v.1.15,2013-09-05 23:10:00,
2013-09-05 16:15:00,60.3,49.7,29.83,SW,229,6.0,8.0,68,0.00,,,0.00,403,Wunderground v.1.15,2013-09-05 23:15:00,
2013-09-05 16:20:00,61.4,49.9,29.83,WSW,241,7.0,9.0,66,0.00,,,0.00,519,Wunderground v.1.15,2013-09-05 23:20:00,
2013-09-05 16:25:00,62.6,49.8,29.83,WSW,239,8.0,13.0,63,0.00,,,0.00,533,Wunderground v.1.15,2013-09-05 23:25:00,
2013-09-05 16:30:00,63.2,50.4,29.83,WSW,250,11.0,11.0,63,0.00,,,0.00,522,Wunderground v.1.15,2013-09-05 23:30:00,
2013-09-05 16:40:00,64.1,49.9,29.83,SW,224,10.0,10.0,60,0.00,,,0.00,492,Wunderground v.1.15,2013-09-05 23:40:00,
2013-09-05 16:45:00,64.6,50.4,29.83,SW,227,8.0,14.0,60,0.00,,,0.00,478,Wunderground v.1.15,2013-09-05 23:45:00,
2013-09-05 16:50:00,65.2,50.0,29.84,SSW,205,9.0,12.0,58,0.00,,,0.00,468,Wunderground v.1.15,2013-09-05 23:50:00,
2013-09-05 17:00:00,65.2,48.6,29.84,SW,231,13.0,14.0,55,0.00,,,0.00,441,Wunderground v.1.15,2013-09-06 00:00:00,
2013-09-05 17:10:00,64.7,47.7,29.85,SW,231,14.0,18.0,54,0.00,,,0.00,417,Wunderground v.1.15,2013-09-06 00:10:00,
2013-09-05 17:15:00,64.4,47.4,29.85,WSW,238,17.0,24.0,54,0.00,,,0.00,403,Wunderground v.1.15,2013-09-06 00:15:00,
2013-09-05 17:20:00,64.3,47.3,29.85,SW,231,19.0,19.0,54,0.00,,,0.00,392,Wunderground v.1.15,2013-09-06 00:20:00,
2013-09-05 17:25:00,64.5,47.5,29.86,WSW,246,18.0,19.0,54,0.00,,,0.00,378,Wunderground v.1.15,2013-09-06 00:25:00,
2013-09-05 17:30:00,64.4,47.4,29.86,SW,229,14.0,14.0,54,0.00,,,0.00,364,Wunderground v.1.15,2013-09-06 00:30:00,
2013-09-05 17:35:00,63.7,47.2,29.86,WSW,238,14.0,18.0,55,0.00,,,0.00,350,Wunderground v.1.15,2013-09-06 00:35:00,
2013-09-05 17:45:00,63.0,47.5,29.86,WSW,239,16.0,17.0,57,0.00,,,0.00,329,Wunderground v.1.15,2013-09-06 00:45:00,
2013-09-05 17:50:00,62.7,47.7,29.86,WSW,251,16.0,16.0,58,0.00,,,0.00,323,Wunderground v.1.15,2013-09-06 00:50:00,
2013-09-05 17:55:00,62.5,47.5,29.86,WSW,257,16.0,16.0,58,0.00,,,0.00,302,Wunderground v.1.15,2013-09-06 00:55:00,
2013-09-05 18:00:00,62.7,47.7,29.87,WSW,244,13.0,17.0,58,0.00,,,0.00,281,Wunderground v.1.15,2013-09-06 01:00:00,
2013-09-05 18:10:00,62.3,47.3,29.88,SW,233,14.0,14.0,58,0.00,,,0.00,271,Wunderground v.1.15,2013-09-06 01:10:00,
2013-09-05 18:20:00,62.4,47.0,29.88,West,273,11.0,11.0,57,0.00,,,0.00,79,Wunderground v.1.15,2013-09-06 01:20:00,
2013-09-05 18:25:00,62.4,47.0,29.89,West,265,10.0,11.0,57,0.00,,,0.00,195,Wunderground v.1.15,2013-09-06 01:25:00,
2013-09-05 18:35:00,62.3,46.9,29.91,WSW,240,11.0,14.0,57,0.00,,,0.00,146,Wunderground v.1.15,2013-09-06 01:35:00,
2013-09-05 18:40:00,61.8,46.9,29.91,SW,232,13.0,14.0,58,0.00,,,0.00,123,Wunderground v.1.15,2013-09-06 01:40:00,
2013-09-05 18:45:00,61.4,46.9,29.91,WSW,239,14.0,14.0,59,0.00,,,0.00,105,Wunderground v.1.15,2013-09-06 01:45:00,
2013-09-05 18:55:00,60.4,46.0,29.91,SW,223,14.0,20.0,59,0.00,,,0.00,26,Wunderground v.1.15,2013-09-06 01:55:00,
2013-09-05 19:00:00,59.6,46.1,29.93,WSW,238,15.0,15.0,61,0.00,,,0.00,28,Wunderground v.1.15,2013-09-06 02:00:00,
2013-09-05 19:10:00,58.6,46.0,29.93,WSW,240,12.0,15.0,63,0.00,,,0.00,14,Wunderground v.1.15,2013-09-06 02:10:00,
2013-09-05 19:15:00,58.3,46.2,29.93,SW,234,12.0,15.0,64,0.00,,,0.00,11,Wunderground v.1.15,2013-09-06 02:15:00,
2013-09-05 19:25:00,57.8,45.7,29.95,WSW,244,10.0,12.0,64,0.00,,,0.00,5,Wunderground v.1.15,2013-09-06 02:25:00,
2013-09-05 19:35:00,57.4,45.3,29.95,WSW,239,11.0,11.0,64,0.00,,,0.00,0,Wunderground v.1.15,2013-09-06 02:35:00,
2013-09-05 19:40:00,57.2,45.5,29.95,WSW,250,10.0,10.0,65,0.00,,,0.00,0,Wunderground v.1.15,2013-09-06 02:40:00,
2013-09-05 19:45:00,57.0,45.3,29.96,WSW,239,8.0,10.0,65,0.00,,,0.00,0,Wunderground v.1.15,2013-09-06 02:45:00,
2013-09-05 19:50:00,56.9,45.7,29.96,SW,228,8.0,8.0,66,0.00,,,0.00,0,Wunderground v.1.15,2013-09-06 02:50:00,
2013-09-05 19:55:00,56.8,45.6,29.96,SW,236,9.0,9.0,66,0.00,,,0.00,0,Wunderground v.1.15,2013-09-06 02:55:00,
2013-09-05 20:00:00,56.6,45.4,29.96,SW,234,7.0,9.0,66,0.00,,,0.00,0,Wunderground v.1.15,2013-09-06 03:00:00,
2013-09-05 20:10:00,56.4,46.0,29.97,SW,235,7.0,9.0,68,0.00,,,0.00,0,Wunderground v.1.15,2013-09-06 03:10:00,
2013-09-05 20:15:00,56.4,46.0,29.97,SW,227,7.0,9.0,68,0.00,,,0.00,0,Wunderground v.1.15,2013-09-06 03:15:00,
2013-09-05 20:25:00,56.1,46.1,29.97,WSW,238,9.0,9.0,69,0.00,,,0.00,0,Wunderground v.1.15,2013-09-06 03:25:00,
2013-09-05 20:30:00,56.0,46.4,29.97,SW,228,9.0,10.0,70,0.00,,,0.00,0,Wunderground v.1.15,2013-09-06 03:30:00,
2013-09-05 20:40:00,56.0,46.7,29.97,WSW,239,11.0,11.0,71,0.00,,,0.00,0,Wunderground v.1.15,2013-09-06 03:40:00,
2013-09-05 20:45:00,56.0,46.7,29.97,WSW,248,10.0,11.0,71,0.00,,,0.00,0,Wunderground v.1.15,2013-09-06 03:45:00,
2013-09-05 20:50:00,55.9,46.6,29.97,SW,235,10.0,11.0,71,0.00,,,0.00,0,Wunderground v.1.15,2013-09-06 03:50:00,
2013-09-05 20:55:00,55.9,46.6,29.97,SSW,213,10.0,11.0,71,0.00,,,0.00,0,Wunderground v.1.15,2013-09-06 03:55:00,
2013-09-05 21:00:00,55.8,46.5,29.97,WSW,239,10.0,10.0,71,0.00,,,0.00,0,Wunderground v.1.15,2013-09-06 04:00:00,
2013-09-05 21:05:00,55.8,46.5,29.97,SW,221,9.0,10.0,71,0.00,,,0.00,0,Wunderground v.1.15,2013-09-06 04:05:00,
2013-09-05 21:10:00,55.8,46.2,29.98,SW,236,8.0,8.0,70,0.00,,,0.00,0,Wunderground v.1.15,2013-09-06 04:10:00,
2013-09-05 21:15:00,55.7,46.1,29.98,SW,232,9.0,9.0,70,0.00,,,0.00,0,Wunderground v.1.15,2013-09-06 04:15:00,
2013-09-05 21:20:00,55.8,45.8,29.98,SW,232,10.0,10.0,69,0.00,,,0.00,0,Wunderground v.1.15,2013-09-06 04:20:00,
2013-09-05 21:25:00,55.8,45.8,29.98,SW,234,11.0,12.0,69,0.00,,,0.00,0,Wunderground v.1.15,2013-09-06 04:25:00,
2013-09-05 21:30:00,55.7,45.7,29.97,SW,222,10.0,13.0,69,0.00,,,0.00,0,Wunderground v.1.15,2013-09-06 04:30:00,
2013-09-05 21:35:00,55.7,45.7,29.97,SW,234,11.0,13.0,69,0.00,,,0.00,0,Wunderground v.1.15,2013-09-06 04:35:00,
2013-09-05 21:45:00,55.0,45.8,29.97,SW,222,8.0,10.0,71,0.00,,,0.00,0,Wunderground v.1.15,2013-09-06 04:45:00,
2013-09-05 21:50:00,54.7,45.8,29.97,SW,219,7.0,7.0,72,0.00,,,0.00,0,Wunderground v.1.15,2013-09-06 04:50:00,
2013-09-05 21:55:00,54.4,45.9,29.97,SW,228,7.0,11.0,73,0.00,,,0.00,0,Wunderground v.1.15,2013-09-06 04:55:00,
2013-09-05 22:00:00,54.4,46.3,29.97,SW,229,9.0,9.0,74,0.00,,,0.00,0,Wunderground v.1.15,2013-09-06 05:00:00,
2013-09-05 22:10:00,54.4,46.3,29.97,SW,234,10.0,11.0,74,0.00,,,0.00,0,Wunderground v.1.15,2013-09-06 05:10:00,
2013-09-05 22:15:00,54.5,46.4,29.97,SW,231,10.0,11.0,74,0.00,,,0.00,0,Wunderground v.1.15,2013-09-06 05:15:00,
2013-09-05 22:20:00,54.6,46.5,29.97,SW,233,10.0,10.0,74,0.00,,,0.00,0,Wunderground v.1.15,2013-09-06 05:20:00,
2013-09-05 22:25:00,54.5,46.4,29.98,SW,224,9.0,10.0,74,0.00,,,0.00,0,Wunderground v.1.15,2013-09-06 05:25:00,
2013-09-05 22:30:00,54.3,46.5,29.98,SW,214,7.0,7.0,75,0.00,,,0.00,0,Wunderground v.1.15,2013-09-06 05:30:00,
2013-09-05 22:35:00,54.1,46.3,29.98,SSW,211,6.0,7.0,75,0.00,,,0.00,0,Wunderground v.1.15,2013-09-06 05:35:00,
2013-09-05 22:40:00,53.8,46.1,29.99,SSW,208,7.0,7.0,75,0.00,,,0.00,0,Wunderground v.1.15,2013-09-06 05:40:00,
2013-09-05 22:45:00,53.5,46.1,29.99,SSW,203,7.0,7.0,76,0.00,,,0.00,0,Wunderground v.1.15,2013-09-06 05:45:00,
2013-09-05 22:55:00,53.2,46.2,29.99,SSW,206,6.0,6.0,77,0.00,,,0.00,0,Wunderground v.1.15,2013-09-06 05:55:00,
2013-09-05 23:05:00,53.3,45.6,29.99,SSW,208,7.0,12.0,75,0.00,,,0.00,0,Wunderground v.1.15,2013-09-06 06:05:00,
2013-09-05 23:10:00,54.0,45.5,30.00,SW,215,8.0,8.0,73,0.00,,,0.00,0,Wunderground v.1.15,2013-09-06 06:10:00,
2013-09-05 23:15:00,54.7,45.5,30.00,WSW,237,8.0,8.0,71,0.00,,,0.00,0,Wunderground v.1.15,2013-09-06 06:15:00,
2013-09-05 23:20:00,55.1,45.5,30.01,WSW,241,5.0,5.0,70,0.00,,,0.00,0,Wunderground v.1.15,2013-09-06 06:20:00,
2013-09-05 23:30:00,55.1,45.5,30.01,WSW,241,0.0,0.0,70,0.00,,,0.00,0,Wunderground v.1.15,2013-09-06 06:30:00,
2013-09-05 23:35:00,55.2,45.6,30.01,WSW,241,0.0,0.0,70,0.00,,,0.00,0,Wunderground v.1.15,2013-09-06 06:35:00,
2013-09-05 23:40:00,55.1,45.5,30.01,WSW,241,0.0,0.0,70,0.00,,,0.00,0,Wunderground v.1.15,2013-09-06 06:40:00,
2013-09-05 23:45:00,55.0,45.4,30.01,WSW,241,0.0,0.0,70,0.00,,,0.00,0,Wunderground v.1.15,2013-09-06 06:45:00,
2013-09-05 23:55:00,54.7,45.5,30.01,WSW,241,0.0,0.0,71,0.00,,,0.00,0,Wunderground v.1.15,2013-09-06 06:55:00,